Wetterdaten: Samstag, 06.06.2015
Datum Zeit Temp. Auen Feucht Auen Luftdruck Regen Richtung Richtung Windben
06.06.2015 00:00 16,9 C 84 % 1018,6 hPa 0,0 mm O-NO 70 0,0 km/h (0 Bft)
06.06.2015 00:05 17,0 C 83 % 1018,6 hPa 0,0 mm O-NO 70 0,0 km/h (0 Bft)
06.06.2015 00:10 17,1 C 83 % 1018,6 hPa 0,0 mm O-NO 70 0,0 km/h (0 Bft)
06.06.2015 00:15 17,2 C 82 % 1018,6 hPa 0,0 mm O-NO 70 0,0 km/h (0 Bft)
06.06.2015 00:20 16,9 C 83 % 1018,6 hPa 0,0 mm O-NO 70 0,0 km/h (0 Bft)
06.06.2015 00:25 16,6 C 84 % 1018,6 hPa 0,0 mm O-NO 70 0,0 km/h (0 Bft)
06.06.2015 00:30 16,2 C 86 % 1018,5 hPa 0,0 mm O-NO 70 0,0 km/h (0 Bft)
06.06.2015 00:35 16,2 C 86 % 1018,6 hPa 0,0 mm O-NO 70 0,0 km/h (0 Bft)
06.06.2015 00:40 16,2 C 86 % 1018,5 hPa 0,0 mm O-NO 70 0,0 km/h (0 Bft)
06.06.2015 00:45 16,3 C 86 % 1018,5 hPa 0,0 mm O-NO 70 0,0 km/h (0 Bft)
06.06.2015 00:50 16,1 C 87 % 1018,5 hPa 0,0 mm O-NO 70 0,0 km/h (0 Bft)
06.06.2015 00:55 16,1 C 87 % 1018,5 hPa 0,0 mm O-NO 70 0,0 km/h (0 Bft)
06.06.2015 01:00 16,1 C 87 % 1018,5 hPa 0,0 mm O-NO 70 0,0 km/h (0 Bft)
06.06.2015 01:05 16,2 C 86 % 1018,5 hPa 0,0 mm O-NO 70 0,0 km/h (0 Bft)
06.06.2015 01:10 16,3 C 86 % 1018,6 hPa 0,0 mm O-NO 70 0,0 km/h (0 Bft)
06.06.2015 01:15 15,9 C 86 % 1018,5 hPa 0,0 mm O-NO 70 0,0 km/h (0 Bft)
06.06.2015 01:20 15,9 C 87 % 1018,5 hPa 0,0 mm O-NO 70 0,0 km/h (0 Bft)
06.06.2015 01:25 15,8 C 88 % 1018,5 hPa 0,0 mm O-NO 70 0,0 km/h (0 Bft)
06.06.2015 01:30 15,9 C 88 % 1018,6 hPa 0,0 mm O-NO 70 0,0 km/h (0 Bft)
06.06.2015 01:35 15,7 C 87 % 1018,5 hPa 0,0 mm O-NO 70 0,0 km/h (0 Bft)
06.06.2015 01:40 15,3 C 89 % 1018,5 hPa 0,0 mm O-NO 70 0,0 km/h (0 Bft)
06.06.2015 01:45 15,4 C 89 % 1018,5 hPa 0,0 mm O-NO 70 1,6 km/h (1 Bft)
06.06.2015 01:50 15,6 C 88 % 1018,5 hPa 0,0 mm O-NO 70 0,0 km/h (0 Bft)
06.06.2015 01:55 15,5 C 88 % 1018,6 hPa 0,0 mm O-NO 70 0,0 km/h (0 Bft)
06.06.2015 02:00 15,5 C 88 % 1018,5 hPa 0,0 mm O-NO 70 0,0 km/h (0 Bft)
06.06.2015 02:05 15,3 C 88 % 1018,5 hPa 0,0 mm O-NO 70 0,0 km/h (0 Bft)
06.06.2015 02:10 15,3 C 88 % 1018,6 hPa 0,0 mm O-NO 70 0,0 km/h (0 Bft)
06.06.2015 02:15 15,2 C 88 % 1018,6 hPa 0,0 mm O-NO 70 0,0 km/h (0 Bft)
06.06.2015 02:20 15,1 C 88 % 1018,6 hPa 0,0 mm O-NO 70 0,0 km/h (0 Bft)
06.06.2015 02:25 15,0 C 89 % 1018,6 hPa 0,0 mm O-NO 70 0,0 km/h (0 Bft)
06.06.2015 02:30 14,9 C 89 % 1018,7 hPa 0,0 mm O-NO 70 0,0 km/h (0 Bft)
06.06.2015 02:35 14,9 C 89 % 1018,7 hPa 0,0 mm O-NO 70 0,0 km/h (0 Bft)
06.06.2015 02:40 14,8 C 90 % 1018,8 hPa 0,0 mm O-NO 70 1,6 km/h (1 Bft)
06.06.2015 02:45 14,8 C 90 % 1018,8 hPa 0,0 mm O-NO 70 0,0 km/h (0 Bft)
06.06.2015 02:50 14,7 C 90 % 1018,7 hPa 0,0 mm O-NO 70 0,0 km/h (0 Bft)
06.06.2015 02:55 14,8 C 90 % 1018,8 hPa 0,0 mm O-NO 70 0,0 km/h (0 Bft)
06.06.2015 03:00 14,9 C 90 % 1018,8 hPa 0,0 mm O-NO 70 0,0 km/h (0 Bft)
06.06.2015 03:05 14,6 C 90 % 1018,9 hPa 0,0 mm O-NO 70 0,0 km/h (0 Bft)
06.06.2015 03:10 14,4 C 90 % 1018,8 hPa 0,0 mm O-NO 70 0,0 km/h (0 Bft)
06.06.2015 03:15 14,4 C 91 % 1018,8 hPa 0,0 mm O-NO 70 0,0 km/h (0 Bft)
06.06.2015 03:20 14,4 C 91 % 1018,9 hPa 0,0 mm O-NO 70 0,0 km/h (0 Bft)
06.06.2015 03:25 14,3 C 91 % 1018,9 hPa 0,0 mm O-NO 70 0,0 km/h (0 Bft)
06.06.2015 03:30 14,3 C 91 % 1019,0 hPa 0,0 mm O-NO 70 0,0 km/h (0 Bft)
06.06.2015 03:35 14,1 C 91 % 1018,9 hPa 0,0 mm O-NO 70 0,0 km/h (0 Bft)
06.06.2015 03:40 14,1 C 91 % 1019,0 hPa 0,0 mm O-NO 70 0,0 km/h (0 Bft)
06.06.2015 03:45 14,2 C 91 % 1019,1 hPa 0,0 mm O-NO 70 0,0 km/h (0 Bft)
06.06.2015 03:50 14,2 C 91 % 1019,1 hPa 0,0 mm O-NO 70 0,0 km/h (0 Bft)
06.06.2015 03:55 14,1 C 91 % 1019,1 hPa 0,0 mm O-NO 70 0,0 km/h (0 Bft)
06.06.2015 04:00 14,1 C 91 % 1019,1 hPa 0,0 mm O-NO 70 0,0 km/h (0 Bft)
06.06.2015 04:05 14,1 C 91 % 1019,0 hPa 0,0 mm O-NO 70 0,0 km/h (0 Bft)
06.06.2015 04:10 13,8 C 91 % 1018,9 hPa 0,0 mm O-NO 70 0,0 km/h (0 Bft)
06.06.2015 04:15 13,8 C 92 % 1018,9 hPa 0,0 mm O-NO 70 0,0 km/h (0 Bft)
06.06.2015 04:20 13,9 C 92 % 1019,0 hPa 0,0 mm O-NO 70 1,6 km/h (1 Bft)
06.06.2015 04:25 14,0 C 92 % 1019,0 hPa 0,0 mm O-NO 70 0,0 km/h (0 Bft)
06.06.2015 04:30 14,1 C 91 % 1019,0 hPa 0,0 mm O-NO 70 0,0 km/h (0 Bft)
06.06.2015 04:35 14,2 C 91 % 1019,0 hPa 0,0 mm O-NO 70 1,6 km/h (1 Bft)
06.06.2015 04:40 14,0 C 91 % 1019,0 hPa 0,0 mm O-NO 70 0,0 km/h (0 Bft)
06.06.2015 04:45 13,9 C 91 % 1019,1 hPa 0,0 mm O-NO 70 0,0 km/h (0 Bft)
06.06.2015 04:50 13,8 C 91 % 1019,1 hPa 0,0 mm O-NO 70 1,6 km/h (1 Bft)
06.06.2015 04:55 13,8 C 91 % 1019,1 hPa 0,0 mm O-NO 70 1,6 km/h (1 Bft)
06.06.2015 05:00 13,9 C 92 % 1019,1 hPa 0,0 mm O-NO 70 0,0 km/h (0 Bft)
06.06.2015 05:05 13,8 C 91 % 1019,1 hPa 0,0 mm O-NO 70 0,0 km/h (0 Bft)
06.06.2015 05:10 13,9 C 92 % 1019,1 hPa 0,0 mm O-NO 70 0,0 km/h (0 Bft)
06.06.2015 05:15 13,8 C 91 % 1019,1 hPa 0,0 mm O-NO 70 0,0 km/h (0 Bft)
06.06.2015 05:20 13,8 C 92 % 1019,2 hPa 0,0 mm O-NO 70 0,0 km/h (0 Bft)
06.06.2015 05:25 13,8 C 92 % 1019,2 hPa 0,0 mm O-NO 70 1,6 km/h (1 Bft)
06.06.2015 05:30 13,8 C 92 % 1019,2 hPa 0,0 mm O-NO 70 3,2 km/h (1 Bft)
06.06.2015 05:35 14,0 C 92 % 1019,2 hPa 0,0 mm O-NO 70 3,2 km/h (1 Bft)
06.06.2015 05:40 14,1 C 92 % 1019,3 hPa 0,0 mm O-NO 70 3,2 km/h (1 Bft)
06.06.2015 05:45 14,1 C 92 % 1019,4 hPa 0,0 mm O-NO 70 0,0 km/h (0 Bft)
06.06.2015 05:50 14,4 C 92 % 1019,5 hPa 0,0 mm O-NO 70 0,0 km/h (0 Bft)
06.06.2015 05:55 14,8 C 92 % 1019,5 hPa 0,0 mm O-NO 68 1,6 km/h (1 Bft)
06.06.2015 06:00 15,2 C 91 % 1019,4 hPa 0,0 mm O-NO 68 3,2 km/h (1 Bft)
06.06.2015 06:05 15,4 C 90 % 1019,5 hPa 0,0 mm O-NO 68 1,6 km/h (1 Bft)
06.06.2015 06:10 15,7 C 90 % 1019,5 hPa 0,0 mm O-NO 68 1,6 km/h (1 Bft)
06.06.2015 06:15 15,8 C 90 % 1019,5 hPa 0,0 mm N-NO 29 1,6 km/h (1 Bft)
06.06.2015 06:20 15,9 C 90 % 1019,6 hPa 0,0 mm N-NO 29 0,0 km/h (0 Bft)
06.06.2015 06:25 16,2 C 90 % 1019,6 hPa 0,0 mm N-NO 29 0,0 km/h (0 Bft)
06.06.2015 06:30 16,2 C 89 % 1019,6 hPa 0,0 mm N-NO 29 0,0 km/h (0 Bft)
06.06.2015 06:35 16,8 C 89 % 1019,6 hPa 0,0 mm N-NO 29 0,0 km/h (0 Bft)
06.06.2015 06:40 17,3 C 87 % 1019,6 hPa 0,0 mm N-NO 13 0,0 km/h (0 Bft)
06.06.2015 06:45 17,2 C 86 % 1019,7 hPa 0,0 mm N-NO 13 0,0 km/h (0 Bft)
06.06.2015 06:50 17,1 C 88 % 1019,7 hPa 0,0 mm N-NO 13 0,0 km/h (0 Bft)
06.06.2015 06:55 16,9 C 88 % 1019,7 hPa 0,0 mm N-NO 13 0,0 km/h (0 Bft)
06.06.2015 07:00 17,1 C 88 % 1019,8 hPa 0,0 mm N-NO 13 0,0 km/h (0 Bft)
06.06.2015 07:05 17,5 C 87 % 1019,9 hPa 0,0 mm N-NO 13 0,0 km/h (0 Bft)
06.06.2015 07:10 17,8 C 86 % 1019,9 hPa 0,0 mm N-NO 13 0,0 km/h (0 Bft)
06.06.2015 07:15 18,0 C 86 % 1020,1 hPa 0,0 mm N-NO 13 0,0 km/h (0 Bft)
06.06.2015 07:20 18,4 C 87 % 1020,2 hPa 0,0 mm N-NO 13 0,0 km/h (0 Bft)
06.06.2015 07:25 18,6 C 86 % 1020,2 hPa 0,0 mm N-NO 13 0,0 km/h (0 Bft)
06.06.2015 07:30 18,8 C 86 % 1020,3 hPa 0,0 mm N-NO 13 0,0 km/h (0 Bft)
06.06.2015 07:35 19,2 C 86 % 1020,4 hPa 0,0 mm N-NO 13 0,0 km/h (0 Bft)
06.06.2015 07:40 19,3 C 84 % 1020,5 hPa 0,0 mm N-NO 13 0,0 km/h (0 Bft)
06.06.2015 07:45 19,6 C 86 % 1020,7 hPa 0,0 mm N-NO 13 0,0 km/h (0 Bft)
06.06.2015 07:50 21,3 C 82 % 1020,6 hPa 0,0 mm W 273 6,4 km/h (2 Bft)
06.06.2015 07:55 22,0 C 76 % 1020,7 hPa 0,0 mm W-NW 284 11,3 km/h (2 Bft)
06.06.2015 08:00 22,2 C 76 % 1020,6 hPa 0,0 mm W 271 9,7 km/h (2 Bft)
06.06.2015 08:05 22,6 C 74 % 1020,6 hPa 0,0 mm W 277 8,0 km/h (2 Bft)
06.06.2015 08:10 22,9 C 73 % 1020,6 hPa 0,0 mm W 277 6,4 km/h (2 Bft)
06.06.2015 08:15 23,3 C 74 % 1020,7 hPa 0,0 mm W 276 4,8 km/h (1 Bft)
06.06.2015 08:20 23,6 C 72 % 1020,8 hPa 0,0 mm W 275 4,8 km/h (1 Bft)
06.06.2015 08:25 24,0 C 73 % 1020,8 hPa 0,0 mm W 274 6,4 km/h (2 Bft)
06.06.2015 08:30 24,1 C 72 % 1020,8 hPa 0,0 mm W 271 4,8 km/h (1 Bft)
06.06.2015 08:35 23,9 C 72 % 1020,9 hPa 0,0 mm W-NW 286 4,8 km/h (1 Bft)
06.06.2015 08:40 24,2 C 72 % 1021,0 hPa 0,0 mm W 273 6,4 km/h (2 Bft)
06.06.2015 08:45 24,7 C 71 % 1021,0 hPa 0,0 mm W 264 6,4 km/h (2 Bft)
06.06.2015 08:50 25,2 C 65 % 1021,1 hPa 0,0 mm W 273 9,7 km/h (2 Bft)
06.06.2015 08:55 25,4 C 64 % 1021,1 hPa 0,0 mm W 274 12,9 km/h (3 Bft)
06.06.2015 09:00 25,7 C 66 % 1021,0 hPa 0,0 mm W 272 9,7 km/h (2 Bft)
06.06.2015 09:05 25,7 C 63 % 1021,1 hPa 0,0 mm W 269 12,9 km/h (3 Bft)
06.06.2015 09:10 25,7 C 63 % 1021,1 hPa 0,0 mm W 262 14,5 km/h (3 Bft)
06.06.2015 09:15 25,9 C 64 % 1021,0 hPa 0,0 mm NW 309 14,5 km/h (3 Bft)
06.06.2015 09:20 26,2 C 63 % 1021,0 hPa 0,0 mm W 279 9,7 km/h (2 Bft)
06.06.2015 09:25 26,4 C 62 % 1020,9 hPa 0,0 mm W-SW 246 14,5 km/h (3 Bft)
06.06.2015 09:30 26,5 C 60 % 1020,9 hPa 0,0 mm W 269 14,5 km/h (3 Bft)
06.06.2015 09:35 26,6 C 60 % 1020,9 hPa 0,0 mm W-SW 254 16,1 km/h (3 Bft)
06.06.2015 09:40 26,7 C 62 % 1020,8 hPa 0,0 mm W-SW 257 11,3 km/h (2 Bft)
06.06.2015 09:45 27,1 C 61 % 1020,7 hPa 0,0 mm W 276 9,7 km/h (2 Bft)
06.06.2015 09:50 27,4 C 59 % 1020,8 hPa 0,0 mm W 260 9,7 km/h (2 Bft)
06.06.2015 09:55 27,6 C 59 % 1020,8 hPa 0,0 mm W 271 11,3 km/h (2 Bft)
06.06.2015 10:00 27,6 C 59 % 1020,7 hPa 0,0 mm W 263 9,7 km/h (2 Bft)
06.06.2015 10:05 27,4 C 57 % 1020,8 hPa 0,0 mm W 261 11,3 km/h (2 Bft)
06.06.2015 10:10 27,6 C 56 % 1020,8 hPa 0,0 mm W 267 17,7 km/h (3 Bft)
06.06.2015 10:15 27,8 C 58 % 1020,7 hPa 0,0 mm W-NW 296 11,3 km/h (2 Bft)
06.06.2015 10:20 27,7 C 59 % 1020,7 hPa 0,0 mm W 281 12,9 km/h (3 Bft)
06.06.2015 10:25 28,1 C 59 % 1020,8 hPa 0,0 mm W 267 12,9 km/h (3 Bft)
06.06.2015 10:30 28,2 C 57 % 1020,7 hPa 0,0 mm W 273 12,9 km/h (3 Bft)
06.06.2015 10:35 28,1 C 55 % 1020,6 hPa 0,0 mm W-SW 241 12,9 km/h (3 Bft)
06.06.2015 10:40 27,9 C 56 % 1020,7 hPa 0,0 mm W-SW 244 16,1 km/h (3 Bft)
06.06.2015 10:45 28,0 C 58 % 1020,7 hPa 0,0 mm W 261 16,1 km/h (3 Bft)
06.06.2015 10:50 28,5 C 59 % 1020,7 hPa 0,0 mm W 275 12,9 km/h (3 Bft)
06.06.2015 10:55 28,6 C 54 % 1020,7 hPa 0,0 mm W 265 14,5 km/h (3 Bft)
06.06.2015 11:00 28,6 C 57 % 1020,7 hPa 0,0 mm W 267 16,1 km/h (3 Bft)
06.06.2015 11:05 28,7 C 57 % 1020,8 hPa 0,0 mm W 280 14,5 km/h (3 Bft)
06.06.2015 11:10 28,9 C 55 % 1020,8 hPa 0,0 mm W 261 17,7 km/h (3 Bft)
06.06.2015 11:15 28,7 C 58 % 1020,8 hPa 0,0 mm W 262 17,7 km/h (3 Bft)
06.06.2015 11:20 28,8 C 57 % 1020,8 hPa 0,0 mm W 260 12,9 km/h (3 Bft)
06.06.2015 11:25 29,0 C 57 % 1020,8 hPa 0,0 mm W 264 17,7 km/h (3 Bft)
06.06.2015 11:30 29,2 C 55 % 1020,8 hPa 0,0 mm W 266 12,9 km/h (3 Bft)
06.06.2015 11:35 29,3 C 55 % 1020,8 hPa 0,0 mm W 275 12,9 km/h (3 Bft)
06.06.2015 11:40 29,3 C 56 % 1020,7 hPa 0,0 mm W 265 11,3 km/h (2 Bft)
06.06.2015 11:45 28,9 C 56 % 1020,7 hPa 0,0 mm W-NW 291 11,3 km/h (2 Bft)
06.06.2015 11:50 29,1 C 57 % 1020,6 hPa 0,0 mm N-NW 337 9,7 km/h (2 Bft)
06.06.2015 11:55 29,6 C 52 % 1020,6 hPa 0,0 mm W 261 11,3 km/h (2 Bft)
06.06.2015 12:00 29,6 C 54 % 1020,7 hPa 0,0 mm W 268 11,3 km/h (2 Bft)
06.06.2015 12:05 30,1 C 53 % 1020,7 hPa 0,0 mm W-SW 254 12,9 km/h (3 Bft)
06.06.2015 12:10 30,2 C 50 % 1020,6 hPa 0,0 mm W-SW 250 16,1 km/h (3 Bft)
06.06.2015 12:15 29,9 C 51 % 1020,6 hPa 0,0 mm W 273 12,9 km/h (3 Bft)
06.06.2015 12:20 30,2 C 53 % 1020,6 hPa 0,0 mm W 277 12,9 km/h (3 Bft)
06.06.2015 12:25 30,2 C 51 % 1020,6 hPa 0,0 mm W-NW 284 16,1 km/h (3 Bft)
06.06.2015 12:30 30,4 C 50 % 1020,6 hPa 0,0 mm W 272 14,5 km/h (3 Bft)
06.06.2015 12:35 30,1 C 52 % 1020,6 hPa 0,0 mm W 265 14,5 km/h (3 Bft)
06.06.2015 12:40 29,8 C 50 % 1020,6 hPa 0,0 mm W-SW 243 12,9 km/h (3 Bft)
06.06.2015 12:45 29,9 C 52 % 1020,6 hPa 0,0 mm W 275 12,9 km/h (3 Bft)
06.06.2015 12:50 30,3 C 51 % 1020,5 hPa 0,0 mm W 270 12,9 km/h (3 Bft)
06.06.2015 12:55 30,2 C 54 % 1020,5 hPa 0,0 mm W-NW 292 9,7 km/h (2 Bft)
06.06.2015 13:00 30,6 C 54 % 1020,5 hPa 0,0 mm W-NW 291 11,3 km/h (2 Bft)
06.06.2015 13:05 30,4 C 52 % 1020,5 hPa 0,0 mm W 277 9,7 km/h (2 Bft)
06.06.2015 13:10 30,5 C 51 % 1020,4 hPa 0,0 mm W 266 14,5 km/h (3 Bft)
06.06.2015 13:15 30,7 C 53 % 1020,4 hPa 0,0 mm W-SW 253 11,3 km/h (2 Bft)
06.06.2015 13:20 30,3 C 54 % 1020,3 hPa 0,0 mm W 281 6,4 km/h (2 Bft)
06.06.2015 13:25 30,4 C 50 % 1020,4 hPa 0,0 mm N 9 8,0 km/h (2 Bft)
06.06.2015 13:30 29,8 C 53 % 1020,3 hPa 0,0 mm W 260 9,7 km/h (2 Bft)
06.06.2015 13:35 30,6 C 52 % 1020,3 hPa 0,0 mm W 263 14,5 km/h (3 Bft)
06.06.2015 13:40 31,1 C 50 % 1020,3 hPa 0,0 mm W 279 9,7 km/h (2 Bft)
06.06.2015 13:45 30,4 C 50 % 1020,3 hPa 0,0 mm SW 232 6,4 km/h (2 Bft)
06.06.2015 13:50 30,1 C 48 % 1020,3 hPa 0,0 mm W 280 6,4 km/h (2 Bft)
06.06.2015 13:55 31,0 C 46 % 1020,3 hPa 0,0 mm W-SW 258 12,9 km/h (3 Bft)
06.06.2015 14:00 31,1 C 49 % 1020,3 hPa 0,0 mm W-NW 294 12,9 km/h (3 Bft)
06.06.2015 14:05 31,2 C 45 % 1020,3 hPa 0,0 mm W 267 11,3 km/h (2 Bft)
06.06.2015 14:10 31,1 C 47 % 1020,2 hPa 0,0 mm W 265 9,7 km/h (2 Bft)
06.06.2015 14:15 31,4 C 44 % 1020,1 hPa 0,0 mm W 267 12,9 km/h (3 Bft)
06.06.2015 14:20 31,2 C 46 % 1020,1 hPa 0,0 mm NW 324 8,0 km/h (2 Bft)
06.06.2015 14:25 31,2 C 45 % 1020,2 hPa 0,0 mm W 266 11,3 km/h (2 Bft)
06.06.2015 14:30 31,3 C 45 % 1020,3 hPa 0,0 mm W 267 11,3 km/h (2 Bft)
06.06.2015 14:35 31,3 C 46 % 1020,3 hPa 0,0 mm W-NW 283 14,5 km/h (3 Bft)
06.06.2015 14:40 31,3 C 47 % 1020,3 hPa 0,0 mm W-NW 286 11,3 km/h (2 Bft)
06.06.2015 14:45 31,2 C 46 % 1020,3 hPa 0,0 mm W 267 11,3 km/h (2 Bft)
06.06.2015 14:50 31,5 C 44 % 1020,3 hPa 0,0 mm W 269 14,5 km/h (3 Bft)
06.06.2015 14:55 31,4 C 43 % 1020,3 hPa 0,0 mm W-SW 255 11,3 km/h (2 Bft)
06.06.2015 15:00 31,2 C 42 % 1020,1 hPa 0,0 mm W-NW 284 12,9 km/h (3 Bft)
06.06.2015 15:05 30,3 C 46 % 1020,1 hPa 0,0 mm N-NW 330 8,0 km/h (2 Bft)
06.06.2015 15:10 31,1 C 43 % 1020,2 hPa 0,0 mm W-SW 254 12,9 km/h (3 Bft)
06.06.2015 15:15 31,2 C 45 % 1020,1 hPa 0,0 mm W 276 8,0 km/h (2 Bft)
06.06.2015 15:20 31,0 C 48 % 1020,1 hPa 0,0 mm W-NW 283 8,0 km/h (2 Bft)
06.06.2015 15:25 31,6 C 45 % 1020,1 hPa 0,0 mm N-NW 336 9,7 km/h (2 Bft)
06.06.2015 15:30 30,7 C 44 % 1019,9 hPa 0,0 mm W-SW 246 25,7 km/h (4 Bft)
06.06.2015 15:35 29,4 C 54 % 1020,0 hPa 0,0 mm O 86 17,7 km/h (3 Bft)
06.06.2015 15:40 28,6 C 57 % 1020,0 hPa 0,0 mm N-NO 21 9,7 km/h (2 Bft)
06.06.2015 15:45 28,4 C 57 % 1020,0 hPa 0,0 mm O-NO 74 9,7 km/h (2 Bft)
06.06.2015 15:50 27,8 C 56 % 1019,9 hPa 0,0 mm O 89 9,7 km/h (2 Bft)
06.06.2015 15:55 28,2 C 56 % 1019,9 hPa 0,0 mm O 99 8,0 km/h (2 Bft)
06.06.2015 16:00 28,1 C 59 % 1019,7 hPa 0,0 mm N-NO 22 6,4 km/h (2 Bft)
06.06.2015 16:05 27,6 C 60 % 1019,7 hPa 0,0 mm O 92 6,4 km/h (2 Bft)
06.06.2015 16:10 28,2 C 54 % 1019,7 hPa 0,0 mm O 90 9,7 km/h (2 Bft)
06.06.2015 16:15 28,3 C 55 % 1019,6 hPa 0,0 mm NO 54 11,3 km/h (2 Bft)
06.06.2015 16:20 28,0 C 53 % 1019,6 hPa 0,0 mm N-NO 24 9,7 km/h (2 Bft)
06.06.2015 16:25 28,1 C 54 % 1019,6 hPa 0,0 mm O-NO 78 11,3 km/h (2 Bft)
06.06.2015 16:30 28,5 C 53 % 1019,5 hPa 0,0 mm O 88 11,3 km/h (2 Bft)
06.06.2015 16:35 28,5 C 50 % 1019,5 hPa 0,0 mm N 5 9,7 km/h (2 Bft)
06.06.2015 16:40 29,2 C 49 % 1019,4 hPa 0,0 mm NO 44 11,3 km/h (2 Bft)
06.06.2015 16:45 29,2 C 46 % 1019,4 hPa 0,0 mm NO 35 9,7 km/h (2 Bft)
06.06.2015 16:50 29,1 C 52 % 1019,4 hPa 0,0 mm NO 53 8,0 km/h (2 Bft)
06.06.2015 16:55 29,3 C 46 % 1019,4 hPa 0,0 mm N-NO 25 9,7 km/h (2 Bft)
06.06.2015 17:00 29,3 C 44 % 1019,2 hPa 0,0 mm N-NW 348 9,7 km/h (2 Bft)
06.06.2015 17:05 29,4 C 49 % 1019,2 hPa 0,0 mm N-NO 17 4,8 km/h (1 Bft)
06.06.2015 17:10 29,1 C 46 % 1019,2 hPa 0,0 mm NO 55 9,7 km/h (2 Bft)
06.06.2015 17:15 29,7 C 44 % 1019,2 hPa 0,0 mm N 355 6,4 km/h (2 Bft)
06.06.2015 17:20 29,3 C 48 % 1019,1 hPa 0,0 mm NO 56 9,7 km/h (2 Bft)
06.06.2015 17:25 29,4 C 44 % 1019,1 hPa 0,0 mm N 355 9,7 km/h (2 Bft)
06.06.2015 17:30 29,4 C 45 % 1019,1 hPa 0,0 mm N 11 8,0 km/h (2 Bft)
06.06.2015 17:35 29,4 C 44 % 1019,1 hPa 0,0 mm N 11 9,7 km/h (2 Bft)
06.06.2015 17:40 29,2 C 44 % 1019,1 hPa 0,0 mm N-NO 15 9,7 km/h (2 Bft)
06.06.2015 17:45 29,3 C 44 % 1019,1 hPa 0,0 mm N 5 6,4 km/h (2 Bft)
06.06.2015 17:50 29,4 C 44 % 1019,1 hPa 0,0 mm N-NO 31 8,0 km/h (2 Bft)
06.06.2015 17:55 29,0 C 45 % 1019,1 hPa 0,0 mm NO 38 8,0 km/h (2 Bft)
06.06.2015 18:00 28,7 C 48 % 1019,0 hPa 0,0 mm NO 49 4,8 km/h (1 Bft)
06.06.2015 18:05 28,3 C 52 % 1018,9 hPa 0,0 mm SO 130 4,8 km/h (1 Bft)
06.06.2015 18:10 28,2 C 56 % 1018,9 hPa 0,0 mm O 88 6,4 km/h (2 Bft)
06.06.2015 18:15 28,3 C 52 % 1019,0 hPa 0,0 mm NO 46 8,0 km/h (2 Bft)
06.06.2015 18:20 28,3 C 49 % 1019,1 hPa 0,0 mm NO 42 8,0 km/h (2 Bft)
06.06.2015 18:25 28,3 C 47 % 1019,1 hPa 0,0 mm N-NO 13 8,0 km/h (2 Bft)
06.06.2015 18:30 28,7 C 41 % 1019,1 hPa 0,0 mm N 9 9,7 km/h (2 Bft)
06.06.2015 18:35 28,6 C 43 % 1019,1 hPa 0,0 mm O-NO 64 6,4 km/h (2 Bft)
06.06.2015 18:40 28,0 C 45 % 1019,1 hPa 0,0 mm NO 42 8,0 km/h (2 Bft)
06.06.2015 18:45 27,6 C 46 % 1019,0 hPa 0,0 mm NO 42 4,8 km/h (1 Bft)
06.06.2015 18:50 27,2 C 50 % 1019,0 hPa 0,0 mm NO 42 3,2 km/h (1 Bft)
06.06.2015 18:55 26,9 C 48 % 1019,0 hPa 0,0 mm NO 42 0,0 km/h (0 Bft)
06.06.2015 19:00 26,4 C 60 % 1018,8 hPa 0,0 mm NO 42 0,0 km/h (0 Bft)
06.06.2015 19:05 25,6 C 61 % 1018,8 hPa 0,0 mm NO 42 1,6 km/h (1 Bft)
06.06.2015 19:10 25,9 C 55 % 1018,8 hPa 0,0 mm NO 42 3,2 km/h (1 Bft)
06.06.2015 19:15 25,5 C 60 % 1018,9 hPa 0,0 mm NO 42 0,0 km/h (0 Bft)
06.06.2015 19:20 25,3 C 61 % 1019,0 hPa 0,0 mm NO 42 0,0 km/h (0 Bft)
06.06.2015 19:25 25,1 C 62 % 1019,0 hPa 0,0 mm NO 42 0,0 km/h (0 Bft)
06.06.2015 19:30 24,6 C 63 % 1019,0 hPa 0,0 mm NO 42 0,0 km/h (0 Bft)
06.06.2015 19:35 24,4 C 61 % 1019,0 hPa 0,0 mm SO 136 1,6 km/h (1 Bft)
06.06.2015 19:40 24,2 C 65 % 1019,1 hPa 0,0 mm SO 136 1,6 km/h (1 Bft)
06.06.2015 19:45 23,6 C 69 % 1019,1 hPa 0,0 mm S 186 1,6 km/h (1 Bft)
06.06.2015 19:50 23,7 C 66 % 1019,2 hPa 0,0 mm SW 232 3,2 km/h (1 Bft)
06.06.2015 19:55 22,9 C 71 % 1019,2 hPa 0,0 mm SW 232 0,0 km/h (0 Bft)
06.06.2015 20:00 23,1 C 71 % 1019,3 hPa 0,0 mm SW 232 0,0 km/h (0 Bft)
06.06.2015 20:05 23,0 C 69 % 1019,4 hPa 0,0 mm SW 232 0,0 km/h (0 Bft)
06.06.2015 20:10 22,8 C 70 % 1019,4 hPa 0,0 mm SW 232 1,6 km/h (1 Bft)
06.06.2015 20:15 22,3 C 73 % 1019,5 hPa 0,0 mm SW 232 0,0 km/h (0 Bft)
06.06.2015 20:20 22,1 C 74 % 1019,5 hPa 0,0 mm SW 232 0,0 km/h (0 Bft)
06.06.2015 20:25 21,8 C 74 % 1019,5 hPa 0,0 mm SW 232 0,0 km/h (0 Bft)
06.06.2015 20:30 21,6 C 74 % 1019,6 hPa 0,0 mm SW 232 0,0 km/h (0 Bft)
06.06.2015 20:35 21,8 C 73 % 1019,7 hPa 0,0 mm SW 232 1,6 km/h (1 Bft)
06.06.2015 20:40 21,9 C 72 % 1019,8 hPa 0,0 mm W 266 4,8 km/h (1 Bft)
06.06.2015 20:45 22,4 C 71 % 1019,9 hPa 0,0 mm W 266 3,2 km/h (1 Bft)
06.06.2015 20:50 21,8 C 74 % 1020,0 hPa 0,0 mm W 266 0,0 km/h (0 Bft)
06.06.2015 20:55 21,6 C 75 % 1020,0 hPa 0,0 mm W 266 1,6 km/h (1 Bft)
06.06.2015 21:00 21,7 C 74 % 1020,2 hPa 0,0 mm W 266 0,0 km/h (0 Bft)
06.06.2015 21:05 21,2 C 76 % 1020,3 hPa 0,0 mm W 266 0,0 km/h (0 Bft)
06.06.2015 21:10 21,1 C 78 % 1020,3 hPa 0,0 mm W 266 1,6 km/h (1 Bft)
06.06.2015 21:15 21,5 C 73 % 1020,3 hPa 0,0 mm W 266 3,2 km/h (1 Bft)
06.06.2015 21:20 21,7 C 74 % 1020,4 hPa 0,0 mm W 266 1,6 km/h (1 Bft)
06.06.2015 21:25 21,4 C 76 % 1020,5 hPa 0,0 mm W 266 3,2 km/h (1 Bft)
06.06.2015 21:30 21,2 C 77 % 1020,6 hPa 0,0 mm W 266 0,0 km/h (0 Bft)
06.06.2015 21:35 21,4 C 76 % 1020,8 hPa 0,0 mm W 263 4,8 km/h (1 Bft)
06.06.2015 21:40 21,6 C 73 % 1020,8 hPa 0,0 mm W-SW 254 6,4 km/h (2 Bft)
06.06.2015 21:45 21,5 C 75 % 1020,8 hPa 0,0 mm W 259 4,8 km/h (1 Bft)
06.06.2015 21:50 21,1 C 77 % 1020,8 hPa 0,0 mm W 259 1,6 km/h (1 Bft)
06.06.2015 21:55 20,8 C 79 % 1021,0 hPa 0,0 mm W 259 1,6 km/h (1 Bft)
06.06.2015 22:00 20,8 C 79 % 1021,1 hPa 0,0 mm W 259 1,6 km/h (1 Bft)
06.06.2015 22:05 20,9 C 78 % 1021,1 hPa 0,0 mm W 259 3,2 km/h (1 Bft)
06.06.2015 22:10 21,1 C 77 % 1021,2 hPa 0,0 mm W 259 1,6 km/h (1 Bft)
06.06.2015 22:15 21,1 C 77 % 1021,3 hPa 0,0 mm W 259 1,6 km/h (1 Bft)
06.06.2015 22:20 20,6 C 79 % 1021,4 hPa 0,0 mm W 259 1,6 km/h (1 Bft)
06.06.2015 22:25 20,4 C 79 % 1021,5 hPa 0,0 mm W 260 3,2 km/h (1 Bft)
06.06.2015 22:30 20,4 C 79 % 1021,6 hPa 0,0 mm W 260 1,6 km/h (1 Bft)
06.06.2015 22:35 20,3 C 79 % 1021,6 hPa 0,0 mm W 260 3,2 km/h (1 Bft)
06.06.2015 22:40 20,4 C 78 % 1021,6 hPa 0,0 mm W 260 3,2 km/h (1 Bft)
06.06.2015 22:45 20,3 C 77 % 1021,7 hPa 0,0 mm W 259 4,8 km/h (1 Bft)
06.06.2015 22:50 20,5 C 78 % 1021,7 hPa 0,0 mm W 270 6,4 km/h (2 Bft)
06.06.2015 22:55 20,6 C 77 % 1021,7 hPa 0,0 mm W 275 4,8 km/h (1 Bft)
06.06.2015 23:00 20,6 C 77 % 1021,7 hPa 0,0 mm W 275 3,2 km/h (1 Bft)
06.06.2015 23:05 20,7 C 76 % 1021,8 hPa 0,0 mm W 269 4,8 km/h (1 Bft)
06.06.2015 23:10 20,6 C 76 % 1021,8 hPa 0,0 mm W 269 3,2 km/h (1 Bft)
06.06.2015 23:15 20,8 C 75 % 1021,9 hPa 0,0 mm W 279 6,4 km/h (2 Bft)
06.06.2015 23:20 20,6 C 77 % 1021,9 hPa 0,0 mm W 275 6,4 km/h (2 Bft)
06.06.2015 23:25 20,3 C 78 % 1022,0 hPa 0,0 mm W-NW 286 6,4 km/h (2 Bft)
06.06.2015 23:30 20,4 C 78 % 1022,1 hPa 0,0 mm W-SW 253 4,8 km/h (1 Bft)
06.06.2015 23:35 20,5 C 77 % 1022,1 hPa 0,0 mm W-SW 253 3,2 km/h (1 Bft)
06.06.2015 23:40 20,5 C 77 % 1022,1 hPa 0,0 mm W-SW 253 1,6 km/h (1 Bft)
06.06.2015 23:45 20,5 C 77 % 1022,0 hPa 0,0 mm W-SW 253 1,6 km/h (1 Bft)
06.06.2015 23:50 20,5 C 75 % 1022,0 hPa 0,0 mm W-SW 245 6,4 km/h (2 Bft)
06.06.2015 23:55 21,1 C 74 % 1021,9 hPa 0,0 mm W-SW 258 6,4 km/h (2 Bft)
_ Min-Zeit 04:10 18:30 00:30 - - - 00:00
Minimum _ 13,8 C 41 % 1018,5 hPa - - - 0,0 km/h (0 Bft)
_ Max-Zeit 15:30 04:15 23:30 00:00 - - 15:30
Maximum _ 31,7 C 92 % 1022,1 hPa 0,0 mm - - 25,7 km/h
W-SW (4 Bft)
Durchschnitt _ 22,9 C 69 % 1019,9 hPa #0,0 mm W - 5,6 km/h (1 Bft)